NI4CE-10 Weather Reports


time (UTC)temp
C
wind
direction
speed
KPH
gust
KPH
rain 1hr
cm
rain 24hr
cm
rain mn
cm
humidity
%
barometer
mb
20260507092537 17 42 0.0 0.0 0.00 0.00 0.00 100 1017.6
20260507092037 17 42 0.0 0.0 0.00 0.00 0.00 100 1017.7
20260507091613 17 42 0.0 0.0 0.00 0.00 0.00 100 1017.6
20260507091537 17 42 0.0 0.0 0.00 0.00 0.00 100 1017.6
20260507091136 17 42 0.0 0.0 0.00 0.00 0.00 100 1017.6
20260507091037 17 42 0.0 0.0 0.00 0.00 0.00 100 1017.6
20260507090537 17 42 0.0 0.0 0.00 0.00 0.00 100 1017.5
20260507090037 17 42 0.0 0.0 0.00 0.00 0.00 100 1017.5
20260507085537 17 42 0.0 0.0 0.00 0.00 0.00 100 1017.4
20260507085037 18 42 0.0 0.0 0.00 0.00 0.00 100 1017.3
20260507084537 18 42 0.0 0.0 0.00 0.00 0.00 100 1017.2
20260507084329 18 42 0.0 0.0 0.00 0.00 0.00 100 1017.2
20260507084154 18 42 0.0 0.0 0.00 0.00 0.00 100 1017.1
20260507084037 18 42 0.0 0.0 0.00 0.00 0.00 100 1017.1
20260507083537 18 42 0.0 0.0 0.00 0.00 0.00 100 1017.1
20260507083037 17 42 0.0 0.0 0.00 0.00 0.00 100 1017.1
20260507082537 18 42 0.0 0.0 0.00 0.00 0.00 100 1017.0
20260507082132 18 42 0.0 0.0 0.00 0.00 0.00 100 1017.0
20260507082037 18 42 0.0 0.0 0.00 0.00 0.00 100 1017.0
20260507081537 18 42 0.0 0.0 0.00 0.00 0.00 100 1017.1
20260507081037 18 42 0.0 0.0 0.00 0.00 0.00 100 1017.3
20260507080537 18 42 0.0 0.0 0.00 0.00 0.00 100 1017.2
20260507080455 19 42 0.0 0.0 0.00 0.00 0.00 100 1017.2
20260507080037 19 42 0.0 0.0 0.00 0.00 0.00 100 1017.2
20260507075537 18 42 0.0 0.0 0.00 0.00 0.00 100 1017.2
20260507075037 18 42 0.0 0.0 0.00 0.00 0.00 100 1017.1
20260507074537 18 42 0.0 0.0 0.00 0.00 0.00 100 1017.0
20260507074037 18 42 0.0 0.0 0.00 0.00 0.00 100 1017.0
20260507073537 18 42 0.0 0.0 0.00 0.00 0.00 100 1017.0
20260507073037 18 42 0.0 0.0 0.00 0.00 0.00 100 1016.9
20260507072615 18 42 0.0 0.0 0.00 0.00 0.00 100 1017.0
20260507072537 18 42 0.0 0.0 0.00 0.00 0.00 100 1017.0
20260507072037 18 42 0.0 1.6 0.00 0.00 0.00 100 1017.0
20260507071537 18 46 0.0 0.0 0.00 0.00 0.00 100 1017.0
20260507071037 18 46 0.0 0.0 0.00 0.00 0.00 100 1017.1
20260507070623 18 46 0.0 0.0 0.00 0.00 0.00 100 1017.2
20260507070537 18 46 0.0 0.0 0.00 0.00 0.00 100 1017.2
20260507070037 18 46 0.0 0.0 0.00 0.00 0.00 100 1017.3
20260507065537 18 46 0.0 0.0 0.00 0.00 0.00 100 1017.4
20260507065037 18 46 0.0 0.0 0.00 0.00 0.00 100 1017.4
20260507064537 18 46 0.0 0.0 0.00 0.00 0.00 100 1017.6
20260507064037 18 46 0.0 0.0 0.00 0.00 0.00 100 1017.6
20260507063826 18 46 0.0 0.0 0.00 0.00 0.00 100 1018.1
20260507063537 18 46 0.0 0.0 0.00 0.00 0.00 100 1017.8
20260507063038 18 46 0.0 0.0 0.00 0.00 0.00 100 1018.1
20260507062537 18 46 0.0 0.0 0.00 0.00 0.00 100 1018.1
20260507062038 18 46 0.0 0.0 0.00 0.00 0.00 100 1018.0
20260507061538 18 46 0.0 0.0 0.00 0.00 0.00 100 1018.1
20260507061150 18 46 0.0 0.0 0.00 0.00 0.00 100 1018.3
20260507061038 18 46 0.0 0.0 0.00 0.00 0.00 100 1018.3
20260507060538 18 46 0.0 0.0 0.00 0.00 0.00 100 1018.3
20260507060038 18 46 0.0 0.0 0.00 0.00 0.00 100 1018.3
20260507055634 19 46 0.0 0.0 0.00 0.00 0.00 100 1018.5
20260507055538 19 46 0.0 0.0 0.00 0.00 0.00 100 1018.5
20260507055118 19 46 0.0 0.0 0.00 0.00 0.00 100 1018.4
20260507055038 19 46 0.0 0.0 0.00 0.00 0.00 100 1018.4
20260507055026 19 46 0.0 0.0 0.00 0.00 0.00 100 1018.6
20260507054613 18 46 0.0 0.0 0.00 0.00 0.00 100 1018.4
20260507054538 18 46 0.0 0.0 0.00 0.00 0.00 100 1018.4
20260507054226 19 46 0.0 0.0 0.00 0.00 0.00 100 1018.5
20260507054038 19 46 0.0 0.0 0.00 0.00 0.00 100 1018.5
20260507053538 19 46 0.0 0.0 0.00 0.00 0.00 100 1018.6
20260507053425 19 46 0.0 0.0 0.00 0.00 0.00 100 1018.9
20260507053038 19 46 0.0 0.0 0.00 0.00 0.00 100 1018.8
20260507052538 19 46 0.0 0.0 0.00 0.00 0.00 100 1018.8
20260507052038 19 46 0.0 0.0 0.00 0.00 0.00 100 1018.9
20260507051655 19 46 0.0 0.0 0.00 0.00 0.00 100 1019.0
20260507051538 20 46 0.0 0.0 0.00 0.00 0.00 100 1019.0
20260507051038 19 46 0.0 0.0 0.00 0.00 0.00 100 1019.0
20260507050538 20 46 0.0 0.0 0.00 0.00 0.00 100 1019.2
20260507050038 20 46 0.0 0.0 0.00 0.00 0.00 100 1019.2
20260507045538 20 46 0.0 0.0 0.00 0.00 0.00 100 1019.1
20260507045038 20 46 0.0 0.0 0.00 0.00 0.00 100 1019.1
20260507044540 20 97 0.0 0.0 0.00 0.00 0.00 100 1019.1
20260507044538 20 46 0.0 0.0 0.00 0.00 0.00 100 1019.0
20260507044038 20 46 0.0 0.0 0.00 0.00 0.00 100 1019.1
20260507043602 20 97 0.0 4.8 0.00 0.00 0.00 100 1019.1
20260507043538 20 97 0.0 0.0 0.00 0.00 0.00 100 1019.1
20260507043038 20 97 0.0 4.8 0.00 0.00 0.00 100 1019.1
20260507042538 20 45 0.0 6.4 0.00 0.00 0.00 100 1019.2
20260507042038 20 91 6.4 6.4 0.00 0.00 0.00 100 1019.1
20260507041538 20 11 0.0 0.0 0.00 0.00 0.00 100 1019.1
20260507041038 20 11 0.0 0.0 0.00 0.00 0.00 100 1019.0
20260507040538 20 11 0.0 0.0 0.00 0.00 0.00 100 1019.1
20260507040038 20 11 0.0 0.0 0.00 0.00 0.00 100 1019.0
20260507035538 20 11 0.0 0.0 0.00 0.00 0.00 100 1018.9
20260507035038 20 11 0.0 0.0 0.00 0.00 0.00 100 1018.9
20260507034538 20 11 0.0 0.0 0.00 0.00 0.00 100 1018.8
20260507034038 20 11 0.0 0.0 0.00 0.00 0.00 100 1018.7
20260507033538 20 11 0.0 0.0 0.00 0.00 0.00 100 1018.8
20260507033038 20 11 0.0 0.0 0.00 0.00 0.00 100 1018.8
20260507032611 20 11 0.0 0.0 0.00 0.00 0.00 100 1018.7
20260507032538 20 11 0.0 0.0 0.00 0.00 0.00 100 1018.7
20260507032038 20 11 0.0 0.0 0.00 0.00 0.00 100 1018.7
20260507031538 20 11 0.0 0.0 0.00 0.00 0.00 100 1018.6
20260507031132 20 11 0.0 0.0 0.00 0.00 0.00 100 1018.7
20260507031038 20 11 0.0 0.0 0.00 0.00 0.00 100 1018.7
20260507030538 20 11 0.0 0.0 0.00 0.00 0.00 100 1018.8
20260507030038 21 11 0.0 0.0 0.00 0.00 0.00 100 1018.8
20260507025538 21 11 0.0 0.0 0.00 0.00 0.00 100 1018.8
20260507025038 21 11 0.0 0.0 0.00 0.00 0.00 100 1018.7
20260507024612 21 11 0.0 0.0 0.00 0.00 0.00 100 1018.7
20260507024538 21 11 0.0 0.0 0.00 0.00 0.00 100 1018.7
20260507024038 21 11 0.0 0.0 0.00 0.00 0.00 100 1018.7
20260507023539 21 11 0.0 0.0 0.00 0.00 0.00 100 1018.7
20260507023039 21 11 0.0 0.0 0.00 0.00 0.00 100 1018.8
20260507022539 21 11 0.0 0.0 0.00 0.00 0.00 100 1018.8
20260507022137 21 11 0.0 0.0 0.00 0.00 0.00 100 1018.8
20260507022039 21 11 0.0 0.0 0.00 0.00 0.00 100 1018.8
20260507021539 21 11 0.0 0.0 0.00 0.00 0.00 100 1018.8
20260507021039 21 11 0.0 0.0 0.00 0.00 0.00 100 1018.8
20260507020715 22 11 0.0 0.0 0.00 0.00 0.00 100 1018.8
20260507020539 21 11 0.0 0.0 0.00 0.00 0.00 100 1018.8
20260507020039 22 11 0.0 0.0 0.00 0.00 0.00 100 1018.8
20260507015539 22 11 0.0 0.0 0.00 0.00 0.00 100 1018.8
20260507015039 22 11 0.0 0.0 0.00 0.00 0.00 100 1018.8
20260507014539 22 11 0.0 0.0 0.00 0.00 0.00 100 1018.8
20260507014039 22 11 0.0 0.0 0.00 0.00 0.00 100 1018.8
20260507013612 22 11 0.0 0.0 0.00 0.00 0.00 100 1018.7
20260507013539 22 11 0.0 0.0 0.00 0.00 0.00 100 1018.7
20260507013039 23 11 0.0 0.0 0.00 0.00 0.00 100 1018.7
20260507012539 23 11 0.0 0.0 0.00 0.00 0.00 100 1018.6
20260507012039 23 11 0.0 0.0 0.00 0.00 0.00 100 1018.6
20260507011539 23 11 0.0 3.2 0.00 0.00 0.00 100 1018.6
20260507011039 23 341 3.2 6.4 0.00 0.00 0.00 100 1018.6
20260507010539 23 288 3.2 3.2 0.00 0.00 0.00 100 1018.6
20260507010039 23 261 0.0 0.0 0.00 0.00 0.00 100 1018.5
20260507005539 24 261 0.0 0.0 0.00 0.00 0.00 100 1018.4
20260507005039 24 261 0.0 0.0 0.00 0.00 0.00 100 1018.5
20260507004539 25 261 0.0 0.0 0.00 0.00 0.00 100 1018.4
20260507004039 25 261 0.0 0.0 0.00 0.00 0.00 100 1018.4
20260507003539 25 261 0.0 4.8 0.00 0.00 0.00 100 1018.3
20260507003039 25 241 0.0 6.4 0.00 0.00 0.00 100 1018.4
20260507002539 26 288 0.0 4.8 0.00 0.00 0.00 100 1018.4
20260507002039 26 219 0.0 6.4 0.00 0.00 0.00 100 1018.4
20260507001539 26 281 0.0 4.8 0.00 0.00 0.00 100 1018.4
20260507001039 26 317 3.2 6.4 0.00 0.00 0.00 100 1018.3
20260507000539 26 306 3.2 6.4 0.00 0.00 0.00 100 1018.3
20260507000039 26 323 4.8 8.0 0.00 0.00 0.00 100 1018.2
20260506235539 26 275 1.6 8.0 0.00 0.00 0.00 100 1018.1
20260506235039 27 265 3.2 9.7 0.00 0.00 0.00 100 1018.1
20260506234539 27 264 3.2 9.7 0.00 0.00 0.00 100 1018.2
20260506234210 27 264 8.0 12.9 0.00 0.00 0.00 100 1018.2
20260506234039 27 264 8.0 12.9 0.00 0.00 0.00 100 1018.2
20260506233539 27 258 9.7 11.3 0.00 0.00 0.00 100 1018.2
20260506233039 27 268 9.7 12.9 0.00 0.00 0.00 100 1018.2
20260506232539 27 282 4.8 11.3 0.00 0.00 0.00 100 1018.2
20260506232039 27 264 3.2 16.1 0.00 0.00 0.00 100 1018.2
20260506231851 27 216 12.9 14.5 0.00 0.00 0.00 100 1018.1
20260506231539 27 216 12.9 14.5 0.00 0.00 0.00 100 1018.1
20260506231039 28 246 9.7 19.3 0.00 0.00 0.00 100 1018.1
20260506230819 28 241 9.7 17.7 0.00 0.00 0.00 100 1018.1
20260506230539 28 260 12.9 17.7 0.00 0.00 0.00 100 1018.1
20260506230039 28 247 9.7 17.7 0.00 0.00 0.00 100 1018.0
20260506225539 28 241 9.7 17.7 0.00 0.00 0.00 100 1018.1
20260506225039 28 237 8.0 20.9 0.00 0.00 0.00 100 1018.0
20260506224539 28 302 11.3 19.3 0.00 0.00 0.00 100 1018.0
20260506224039 28 241 8.0 22.5 0.00 0.00 0.00 100 1018.0
20260506223539 29 247 9.7 17.7 0.00 0.00 0.00 100 1018.0
20260506223040 29 254 9.7 16.1 0.00 0.00 0.00 100 1017.9
20260506222540 29 240 14.5 17.7 0.00 0.00 0.00 100 1017.9
20260506222040 29 258 16.1 19.3 0.00 0.00 0.00 100 1017.9
20260506221540 30 247 11.3 14.5 0.00 0.00 0.00 100 1017.9
20260506221040 30 272 12.9 17.7 0.00 0.00 0.00 100 1017.8
20260506220540 30 244 9.7 14.5 0.00 0.00 0.00 100 1017.8
20260506220040 30 278 11.3 19.3 0.00 0.00 0.00 100 1017.7
20260506215540 30 220 9.7 19.3 0.00 0.00 0.00 100 1017.8
20260506215040 30 243 11.3 19.3 0.00 0.00 0.00 100 1017.8
20260506214540 31 262 11.3 17.7 0.00 0.00 0.00 100 1017.8
20260506214040 31 277 6.4 17.7 0.00 0.00 0.00 100 1017.7
20260506213540 31 278 4.8 19.3 0.00 0.00 0.00 100 1017.7
20260506213040 31 248 9.7 17.7 0.00 0.00 0.00 100 1017.7
20260506212540 31 260 9.7 16.1 0.00 0.00 0.00 100 1017.7
20260506212040 32 275 11.3 17.7 0.00 0.00 0.00 100 1017.6
20260506211540 32 255 8.0 14.5 0.00 0.00 0.00 100 1017.7
20260506211040 32 305 3.2 12.9 0.00 0.00 0.00 100 1017.7
20260506210540 32 322 6.4 12.9 0.00 0.00 0.00 100 1017.7
20260506210040 32 277 4.8 12.9 0.00 0.00 0.00 100 1017.6
20260506205540 32 246 8.0 19.3 0.00 0.00 0.00 100 1017.6
20260506205233 31 213 9.7 17.7 0.00 0.00 0.00 100 1017.6
20260506205040 31 270 12.9 17.7 0.00 0.00 0.00 100 1017.6
20260506204540 31 213 9.7 17.7 0.00 0.00 0.00 100 1017.6
20260506204040 32 236 9.7 17.7 0.00 0.00 0.00 100 1017.5
20260506203540 32 209 11.3 16.1 0.00 0.00 0.00 100 1017.5
20260506203040 32 239 11.3 24.1 0.00 0.00 0.00 100 1017.6
20260506202540 32 233 14.5 22.5 0.00 0.00 0.00 100 1017.6
20260506202040 32 244 16.1 25.7 0.00 0.00 0.00 100 1017.7
20260506201711 32 240 14.5 24.1 0.00 0.00 0.00 100 1017.7
20260506201540 32 240 14.5 24.1 0.00 0.00 0.00 100 1017.7
20260506201040 33 267 6.4 27.4 0.00 0.00 0.00 100 1017.6
20260506200540 33 241 11.3 17.7 0.00 0.00 0.00 100 1017.7
20260506200040 33 258 17.7 19.3 0.00 0.00 0.00 100 1017.6
20260506195540 33 264 6.4 17.7 0.00 0.00 0.00 100 1017.6
20260506195145 33 326 1.6 17.7 0.00 0.00 0.00 100 1017.7
20260506195040 33 326 1.6 17.7 0.00 0.00 0.00 100 1017.7
20260506194841 33 253 12.9 14.5 0.00 0.00 0.00 100 1017.7
20260506194540 33 253 12.9 14.5 0.00 0.00 0.00 100 1017.7
20260506194040 33 84 3.2 8.0 0.00 0.00 0.00 100 1017.8
20260506193540 33 91 4.8 6.4 0.00 0.00 0.00 100 1017.9
20260506193406 33 144 6.4 14.5 0.00 0.00 0.00 100 1018.0
20260506193040 33 144 6.4 14.5 0.00 0.00 0.00 100 1018.0
20260506192933 34 130 6.4 11.3 0.00 0.00 0.00 100 1017.9
20260506192540 34 130 6.4 11.3 0.00 0.00 0.00 100 1017.9
20260506192040 34 246 3.2 11.3 0.00 0.00 0.00 100 1017.9
20260506191719 33 278 1.6 11.3 0.00 0.00 0.00 100 1018.0
20260506191540 34 244 0.0 16.1 0.00 0.00 0.00 100 1017.9
20260506191040 33 333 3.2 11.3 0.00 0.00 0.00 100 1018.0
20260506190540 33 278 1.6 11.3 0.00 0.00 0.00 100 1018.0
20260506190040 32 306 1.6 11.3 0.00 0.00 0.00 100 1018.1
20260506185625 33 222 3.2 11.3 0.00 0.00 0.00 100 1018.2
20260506185540 33 222 3.2 11.3 0.00 0.00 0.00 100 1018.2
20260506185427 33 158 9.7 11.3 0.00 0.00 0.00 100 1018.3
20260506185040 33 158 9.7 11.3 0.00 0.00 0.00 100 1018.3
20260506184540 33 132 9.7 14.5 0.00 0.00 0.00 100 1018.5
20260506184040 33 8 1.6 16.1 0.00 0.00 0.00 100 1018.5
20260506183729 33 212 12.9 16.1 0.00 0.00 0.00 100 1018.7
20260506183541 33 212 12.9 16.1 0.00 0.00 0.00 100 1018.7
20260506183200 33 286 3.2 9.7 0.00 0.00 0.00 100 1018.7
20260506183041 33 286 3.2 9.7 0.00 0.00 0.00 100 1018.7
20260506182916 33 278 3.2 9.7 0.00 0.00 0.00 100 1018.8
20260506182541 33 278 3.2 9.7 0.00 0.00 0.00 100 1018.8
20260506182519 33 164 0.0 11.3 0.00 0.00 0.00 100 1018.8
20260506182041 33 164 0.0 11.3 0.00 0.00 0.00 100 1018.8
20260506181908 33 210 16.1 16.1 0.00 0.00 0.00 100 1019.0
20260506181541 32 130 6.4 17.7 0.00 0.00 0.00 100 1018.9
20260506181041 33 210 16.1 16.1 0.00 0.00 0.00 100 1019.0
20260506181018 32 232 4.8 16.1 0.00 0.00 0.00 100 1019.0
20260506180541 32 147 3.2 17.7 0.00 0.00 0.00 100 1019.0
20260506180041 32 232 4.8 16.1 0.00 0.00 0.00 100 1019.0
20260506180017 32 151 3.2 14.5 0.00 0.00 0.00 100 1018.9
20260506175541 32 151 3.2 14.5 0.00 0.00 0.00 100 1018.9
20260506175041 33 184 6.4 24.1 0.00 0.00 0.00 100 1019.1
20260506174541 33 209 4.8 8.0 0.00 0.00 0.00 100 1019.0
20260506174041 32 78 0.0 11.3 0.00 0.00 0.00 100 1019.2
20260506173751 32 168 9.7 19.3 0.00 0.00 0.00 100 1019.2
20260506173541 32 168 9.7 19.3 0.00 0.00 0.00 100 1019.2
20260506173041 32 210 8.0 12.9 0.00 0.00 0.00 100 1019.1
20260506172642 31 201 11.3 17.7 0.00 0.00 0.00 100 1019.2
20260506172541 31 274 1.6 14.5 0.00 0.00 0.00 100 1019.1
20260506172041 31 201 11.3 17.7 0.00 0.00 0.00 100 1019.2
20260506171541 32 209 14.5 16.1 0.00 0.00 0.00 100 1019.2
20260506171157 32 227 6.4 11.3 0.00 0.00 0.00 100 1019.2
20260506171041 31 185 6.4 17.7 0.00 0.00 0.00 100 1019.2
20260506170541 32 227 6.4 11.3 0.00 0.00 0.00 100 1019.2
20260506170259 31 192 6.4 16.1 0.00 0.00 0.00 100 1019.4
20260506170041 31 195 8.0 14.5 0.00 0.00 0.00 100 1019.3
20260506165541 31 192 6.4 16.1 0.00 0.00 0.00 100 1019.4
20260506165041 31 215 4.8 12.9 0.00 0.00 0.00 100 1019.5
20260506164541 31 187 9.7 17.7 0.00 0.00 0.00 100 1019.5
20260506164200 31 156 11.3 14.5 0.00 0.00 0.00 100 1019.5
20260506164041 31 156 11.3 14.5 0.00 0.00 0.00 100 1019.5
20260506163541 31 236 8.0 16.1 0.00 0.00 0.00 100 1019.5
20260506163041 31 142 6.4 17.7 0.00 0.00 0.00 100 1019.6
20260506162541 31 178 16.1 19.3 0.00 0.00 0.00 100 1019.6
20260506162120 31 153 12.9 19.3 0.00 0.00 0.00 100 1019.5
20260506162041 31 153 12.9 19.3 0.00 0.00 0.00 100 1019.5
20260506161541 31 167 3.2 16.1 0.00 0.00 0.00 100 1019.6
20260506161112 30 199 3.2 16.1 0.00 0.00 0.00 100 1019.6
20260506161041 30 213 9.7 16.1 0.00 0.00 0.00 100 1019.6
20260506160541 30 118 11.3 17.7 0.00 0.00 0.00 100 1019.6
20260506160041 30 199 3.2 16.1 0.00 0.00 0.00 100 1019.6
20260506155941 31 177 11.3 14.5 0.00 0.00 0.00 100 1019.6
20260506155541 30 227 4.8 20.9 0.00 0.00 0.00 100 1019.7
20260506155041 31 177 11.3 14.5 0.00 0.00 0.00 100 1019.6
20260506154813 31 167 14.5 16.1 0.00 0.00 0.00 100 1019.6
20260506154541 30 219 8.0 16.1 0.00 0.00 0.00 100 1019.7
20260506154041 30 192 6.4 20.9 0.00 0.00 0.00 100 1019.7
20260506153541 31 167 14.5 16.1 0.00 0.00 0.00 100 1019.6
20260506153041 30 140 9.7 14.5 0.00 0.00 0.00 100 1019.6
20260506152541 29 154 4.8 16.1 0.00 0.00 0.00 100 1019.6
20260506152439 29 189 4.8 19.3 0.00 0.00 0.00 100 1019.6
20260506152041 29 189 4.8 19.3 0.00 0.00 0.00 100 1019.6
20260506151541 29 178 9.7 19.3 0.00 0.00 0.00 100 1019.7
20260506151147 29 210 12.9 14.5 0.00 0.00 0.00 100 1019.7
20260506151041 29 210 12.9 14.5 0.00 0.00 0.00 100 1019.7
20260506150541 29 108 4.8 17.7 0.00 0.00 0.00 100 1019.6
20260506150041 29 170 8.0 16.1 0.00 0.00 0.00 100 1019.6
20260506145541 28 251 6.4 14.5 0.00 0.00 0.00 100 1019.6
20260506145041 28 175 11.3 19.3 0.00 0.00 0.00 100 1019.6
20260506144541 28 151 4.8 14.5 0.00 0.00 0.00 100 1019.5
20260506144041 28 160 9.7 14.5 0.00 0.00 0.00 100 1019.5
20260506143629 28 181 12.9 17.7 0.00 0.00 0.00 100 1019.5
20260506143542 28 181 12.9 17.7 0.00 0.00 0.00 100 1019.5
20260506143042 28 206 9.7 16.1 0.00 0.00 0.00 100 1019.5
20260506142542 28 189 9.7 16.1 0.00 0.00 0.00 100 1019.5
20260506142120 27 188 4.8 12.9 0.00 0.00 0.00 100 1019.5
20260506142042 27 188 4.8 12.9 0.00 0.00 0.00 100 1019.5
20260506141542 27 194 3.2 17.7 0.00 0.00 0.00 100 1019.5
20260506141329 27 182 14.5 14.5 0.00 0.00 0.00 100 1019.6
20260506141042 27 182 14.5 14.5 0.00 0.00 0.00 100 1019.6
20260506140542 27 157 6.4 14.5 0.00 0.00 0.00 100 1019.6
20260506140042 27 191 9.7 16.1 0.00 0.00 0.00 100 1019.6
20260506135542 27 171 8.0 16.1 0.00 0.00 0.00 100 1019.5
20260506135042 26 194 11.3 16.1 0.00 0.00 0.00 100 1019.6
20260506134542 26 174 8.0 17.7 0.00 0.00 0.00 100 1019.5
20260506134216 26 161 8.0 17.7 0.00 0.00 0.00 100 1019.5
20260506134042 26 161 8.0 17.7 0.00 0.00 0.00 100 1019.5
20260506133956 25 165 16.1 17.7 0.00 0.00 0.00 100 1019.4
20260506133542 25 184 9.7 19.3 0.00 0.00 0.00 100 1019.4
20260506133042 25 165 16.1 17.7 0.00 0.00 0.00 100 1019.4
20260506132700 26 91 11.3 16.1 0.00 0.00 0.00 100 1019.4
20260506132542 26 91 11.3 16.1 0.00 0.00 0.00 100 1019.4
20260506132127 25 115 8.0 19.3 0.00 0.00 0.00 100 1019.4
20260506132042 25 115 8.0 19.3 0.00 0.00 0.00 100 1019.4
20260506131713 25 150 8.0 14.5 0.00 0.00 0.00 100 1019.3
20260506131614 25 150 8.0 14.5 0.00 0.00 0.00 100 1019.3
20260506131542 25 150 8.0 14.5 0.00 0.00 0.00 100 1019.3
20260506131214 25 130 6.4 16.1 0.00 0.00 0.00 100 1019.4
20260506131121 25 130 6.4 16.1 0.00 0.00 0.00 100 1019.4
20260506131042 25 130 6.4 16.1 0.00 0.00 0.00 100 1019.4
20260506130708 25 156 11.3 16.1 0.00 0.00 0.00 100 1019.3
20260506130542 25 156 11.3 16.1 0.00 0.00 0.00 100 1019.3
20260506130042 25 182 4.8 11.3 0.00 0.00 0.00 100 1019.3
20260506125542 25 188 3.2 11.3 0.00 0.00 0.00 100 1019.2
20260506125223 24 132 8.0 11.3 0.00 0.00 0.00 100 1019.2
20260506125042 24 132 8.0 11.3 0.00 0.00 0.00 100 1019.2
20260506124923 22 156 4.8 8.0 0.00 0.00 0.00 100 1019.1
20260506124542 23 132 6.4 11.3 0.00 0.00 0.00 100 1019.1
20260506124133 23 147 11.3 11.3 0.00 0.00 0.00 100 1019.1
20260506124042 23 147 11.3 11.3 0.00 0.00 0.00 100 1019.1
20260506123619 22 125 3.2 11.3 0.00 0.00 0.00 100 1019.1
20260506123542 22 125 3.2 11.3 0.00 0.00 0.00 100 1019.1
20260506123131 22 156 4.8 8.0 0.00 0.00 0.00 100 1019.1
20260506123042 22 156 4.8 8.0 0.00 0.00 0.00 100 1019.1
20260506122642 21 150 3.2 8.0 0.00 0.00 0.00 100 1019.1
20260506122542 21 150 3.2 8.0 0.00 0.00 0.00 100 1019.1
20260506122515 20 77 0.0 0.0 0.00 0.00 0.00 100 1018.9
20260506122042 21 142 1.6 8.0 0.00 0.00 0.00 100 1019.0
20260506121542 21 77 0.0 0.0 0.00 0.00 0.00 100 1019.0
20260506121042 21 77 0.0 0.0 0.00 0.00 0.00 100 1018.9
20260506120626 20 77 0.0 0.0 0.00 0.00 0.00 100 1018.9
20260506120542 20 77 0.0 0.0 0.00 0.00 0.00 100 1018.9
20260506120131 20 77 0.0 0.0 0.00 0.00 0.00 100 1018.9
20260506120042 20 77 0.0 0.0 0.00 0.00 0.00 100 1018.9
20260506115542 20 77 0.0 0.0 0.00 0.00 0.00 100 1018.9
20260506115042 20 77 0.0 0.0 0.00 0.00 0.00 100 1018.8
20260506114746 20 77 0.0 0.0 0.00 0.00 0.00 100 1018.7
20260506114710 20 77 0.0 0.0 0.00 0.00 0.00 100 1018.7
20260506114542 20 77 0.0 0.0 0.00 0.00 0.00 100 1018.7
20260506114042 18 77 0.0 0.0 0.00 0.00 0.00 100 1018.7
20260506113542 18 77 0.0 0.0 0.00 0.00 0.00 100 1018.8
20260506113042 17 77 0.0 0.0 0.00 0.00 0.00 100 1018.7
20260506112542 17 77 0.0 0.0 0.00 0.00 0.00 100 1018.6
20260506112042 17 77 0.0 0.0 0.00 0.00 0.00 100 1018.5
20260506111847 17 77 0.0 0.0 0.00 0.00 0.00 100 1018.5
20260506111648 17 77 0.0 0.0 0.00 0.00 0.00 100 1018.5
20260506111542 17 77 0.0 0.0 0.00 0.00 0.00 100 1018.5
20260506111405 16 77 0.0 0.0 0.00 0.00 0.00 100 1018.1
20260506111042 17 77 0.0 0.0 0.00 0.00 0.00 100 1018.4
20260506110542 17 77 0.0 0.0 0.00 0.00 0.00 100 1018.3
20260506110042 16 77 0.0 0.0 0.00 0.00 0.00 100 1018.2
20260506105542 16 77 0.0 0.0 0.00 0.00 0.00 100 1018.2
20260506105042 16 77 0.0 0.0 0.00 0.00 0.00 100 1018.2
20260506104542 16 77 0.0 0.0 0.00 0.00 0.00 100 1018.1
20260506104358 16 77 0.0 0.0 0.00 0.00 0.00 100 1017.8
20260506104042 17 77 0.0 0.0 0.00 0.00 0.00 100 1018.1
20260506103543 17 77 0.0 0.0 0.00 0.00 0.00 100 1018.0
20260506103043 16 77 0.0 0.0 0.00 0.00 0.00 100 1017.8
20260506102543 16 77 0.0 0.0 0.00 0.00 0.00 100 1018.0
20260506102043 16 77 0.0 0.0 0.00 0.00 0.00 100 1018.0
20260506101543 16 77 0.0 0.0 0.00 0.00 0.00 100 1017.9
20260506101043 16 77 0.0 0.0 0.00 0.00 0.00 100 1017.9
20260506100543 16 77 0.0 0.0 0.00 0.00 0.00 100 1017.9
20260506100043 16 77 0.0 0.0 0.00 0.00 0.00 100 1017.8
20260506095543 16 77 0.0 0.0 0.00 0.00 0.00 100 1017.9
20260506095043 16 77 0.0 0.0 0.00 0.00 0.00 100 1017.9
20260506094543 16 77 0.0 0.0 0.00 0.00 0.00 100 1018.0
20260506094043 16 77 0.0 0.0 0.00 0.00 0.00 100 1017.8
20260506093759 16 77 0.0 0.0 0.00 0.00 0.00 100 1017.8
20260506093543 16 77 0.0 0.0 0.00 0.00 0.00 100 1017.8
20260506093043 16 77 0.0 0.0 0.00 0.00 0.00 100 1017.9